User: anonymous   Login
Location: Rometta
(44.2000°N, 10.0500°E)
Time: 08:06:09
(UTC+00:00)
Language:

Cosmos 1538 Rocket - Orbit

View from above orbital plane
View from above orbital plane
View from above satellite
View from above satellite

Ground track
Ground track

The orbit data is extracted from the following two-line orbital elements,

1 14760U 84019B   21101.93027621  .00000099  00000-0  42934-4 0  9999
2 14760  74.0423  83.0918 0028656 318.1884  41.7079 14.35902956943557
Epoch (UTC): 11 April 2021 22:19:35
Eccentricity: 0.0028656
inclination: 74.0423°
perigee height: 751 km
apogee height: 792 km
right ascension of ascending node: 83.0918°
argument of perigee: 318.1884°
revolutions per day: 14.35902956
mean anomaly at epoch: 41.7079°
orbit number at epoch: 94355

The dashed part of the orbit path shows where the satellite is in the earth's shadow,  

DLR